M I D A S
Marine Information and Data Acquisition System
Tripno 1084 of the Zeeleeuw from 2006-05-16 11:20:07 to 2006-05-16 13:52:37
Back to CruiseResearch ActivitiesStationsMapUnderway DataData graphs

EquipmentUnitsComments
TimeDGPSUTC
LatitudeDGPSDM.mWGS84
LongitudeDGPSDM.mWGS84
SpeedMeteo Stationm/sRelative wind speed
DirectionMeteo StationdegRelative wind direction
TemperatureMeteo Stationdeg CelciusAir temperature
PressureMeteo StationPaAtmospheric pressure
HumidityMeteo Station%Relative humidity
Missing or incorrect values are displayed as -999
Metereological data collected by the RV Zeeleeuw from 2006-05-16 07:39:04 to 2006-05-16 14:03:54
Time Latitude Longitude Speed Direction Temperature Pressure Humidity
2006-05-16 07:40 51°13.6 2°56.1 -999 133 13.3 101560 87
2006-05-16 07:41 51°13.6 2°56.099 -999 128 13.3 101560 87
2006-05-16 07:42 51°13.603 2°56.083 -999 155 13.4 101560 87
2006-05-16 07:43 51°13.618 2°56.006 -999 181 13.4 101550 87
2006-05-16 07:44 51°13.651 2°55.891 -999 178 13.5 101560 88
2006-05-16 07:45 51°13.695 2°55.788 -999 164 13.5 101560 86
2006-05-16 07:46 51°13.715 2°55.737 -999 193 13.4 101560 86
2006-05-16 07:47 51°13.716 2°55.725 -999 228 13.4 101560 86
2006-05-16 07:48 51°13.721 2°55.713 -999 265 13.4 101560 86
2006-05-16 07:49 51°13.76 2°55.699 -999 313 13.5 101560 85
2006-05-16 07:50 51°13.82 2°55.646 -999 335 13.5 101570 85
2006-05-16 07:51 51°13.923 2°55.561 -999 14 13.5 101570 84
2006-05-16 07:52 51°14.056 2°55.475 -999 324 13.5 101570 84
2006-05-16 07:53 51°14.184 2°55.372 -999 340 13.5 101570 84
2006-05-16 07:54 51°14.287 2°55.221 -999 343 13.6 101560 85
2006-05-16 07:55 51°14.371 2°55.041 -999 328 13.5 101570 86
2006-05-16 07:56 51°14.446 2°54.82 -999 333 13.4 101550 86
2006-05-16 07:57 51°14.512 2°54.522 -999 343 13.3 101550 87
2006-05-16 07:58 51°14.586 2°54.205 -999 342 13.2 101550 87
2006-05-16 07:59 51°14.624 2°53.854 -999 343 13.2 101560 88
2006-05-16 08:00 51°14.675 2°53.516 -999 341 13.1 101560 89
2006-05-16 08:01 51°14.684 2°53.174 -999 353 13.1 101560 89
2006-05-16 08:02 51°14.677 2°52.814 -999 348 13.1 101570 90
2006-05-16 08:03 51°14.667 2°52.46 -999 358 13.1 101560 90
2006-05-16 08:04 51°14.627 2°52.107 -999 353 13 101560 90
2006-05-16 08:05 51°14.597 2°51.752 -999 359 13 101570 90
2006-05-16 08:06 51°14.523 2°51.411 -999 354 13 101560 90
2006-05-16 08:07 51°14.484 2°51.054 -999 359 12.9 101560 91
2006-05-16 08:08 51°14.422 2°50.704 -999 357 12.9 101560 91
2006-05-16 08:09 51°14.381 2°50.344 -999 357 13 101570 92
2006-05-16 08:10 51°14.327 2°49.986 -999 1 12.9 101570 91
2006-05-16 08:11 51°14.28 2°49.624 -999 358 12.9 101570 91
2006-05-16 08:12 51°14.223 2°49.266 -999 357 12.9 101570 92
2006-05-16 08:13 51°14.173 2°48.905 -999 354 12.9 101560 91
2006-05-16 08:14 51°14.122 2°48.543 -999 356 12.9 101570 92
2006-05-16 08:15 51°14.07 2°48.231 -999 353 12.9 101570 92
2006-05-16 08:16 51°14.053 2°48.058 -999 343 12.9 101580 92
2006-05-16 08:17 51°14.045 2°48.007 -999 285 12.9 101580 92
2006-05-16 08:18 51°14.031 2°47.989 -999 266 13 101580 92
2006-05-16 08:19 51°14.018 2°47.971 -999 261 12.9 101590 92
2006-05-16 08:20 51°14.007 2°47.954 -999 251 12.9 101590 92
2006-05-16 08:21 51°13.997 2°47.938 -999 249 12.9 101590 92
2006-05-16 08:22 51°13.986 2°47.921 -999 251 12.8 101590 92
2006-05-16 08:23 51°13.977 2°47.903 -999 253 12.8 101590 92
2006-05-16 08:24 51°13.968 2°47.885 -999 257 12.8 101580 92
2006-05-16 08:25 51°13.96 2°47.867 -999 260 12.8 101590 92
2006-05-16 08:26 51°13.953 2°47.849 -999 265 12.8 101590 92
2006-05-16 08:27 51°14.016 2°47.821 -999 262 12.8 101590 92
2006-05-16 08:28 51°14.084 2°47.919 -999 164 12.9 101600 92
2006-05-16 08:29 51°14.093 2°48.028 -999 159 12.9 101600 91
2006-05-16 08:30 51°14.091 2°48.117 -999 161 12.8 101600 91
2006-05-16 08:31 51°14.086 2°48.201 -999 149 12.8 101600 91
2006-05-16 08:32 51°14.07 2°48.279 -999 146 12.8 101610 91
2006-05-16 08:33 51°14.047 2°48.356 -999 139 12.8 101600 91
2006-05-16 08:34 51°14.03 2°48.434 -999 148 12.8 101600 91
2006-05-16 08:35 51°14.04 2°48.519 -999 189 12.8 101610 91
2006-05-16 08:36 51°14.067 2°48.596 -999 195 13.1 101610 92
2006-05-16 08:37 51°14.094 2°48.663 -999 199 13.2 101610 89
2006-05-16 08:38 51°14.124 2°48.725 -999 213 13.2 101610 89
2006-05-16 08:39 51°14.154 2°48.782 -999 206 13.1 101610 89
2006-05-16 08:40 51°14.187 2°48.842 -999 211 13 101610 89
2006-05-16 08:41 51°14.217 2°48.9 -999 218 12.9 101610 89
2006-05-16 08:42 51°14.248 2°48.959 -999 204 12.9 101610 90
2006-05-16 08:43 51°14.276 2°49.017 -999 201 12.9 101600 90
2006-05-16 08:44 51°14.306 2°49.079 -999 221 12.9 101610 90
2006-05-16 08:45 51°14.337 2°49.141 -999 219 12.9 101610 91
2006-05-16 08:46 51°14.37 2°49.202 -999 220 12.9 101600 91
2006-05-16 08:47 51°14.403 2°49.262 -999 214 12.9 101610 90
2006-05-16 08:48 51°14.433 2°49.319 -999 209 12.9 101600 91
2006-05-16 08:49 51°14.466 2°49.382 -999 233 12.9 101610 91
2006-05-16 08:50 51°14.496 2°49.442 -999 223 12.9 101610 91
2006-05-16 08:51 51°14.527 2°49.504 -999 220 12.9 101610 91
2006-05-16 08:52 51°14.558 2°49.564 -999 219 12.9 101610 91
2006-05-16 08:53 51°14.589 2°49.623 -999 219 12.9 101610 91
2006-05-16 08:54 51°14.623 2°49.68 -999 220 12.8 101610 90
2006-05-16 08:55 51°14.661 2°49.73 -999 226 12.8 101610 91
2006-05-16 08:56 51°14.699 2°49.781 -999 222 12.8 101610 90
2006-05-16 08:57 51°14.737 2°49.831 -999 229 12.8 101620 90
2006-05-16 08:58 51°14.774 2°49.883 -999 221 12.8 101610 90
2006-05-16 08:59 51°14.811 2°49.935 -999 235 12.8 101610 91
2006-05-16 09:00 51°14.848 2°49.989 -999 226 12.8 101610 91
2006-05-16 09:01 51°14.882 2°50.041 -999 225 12.9 101620 91
2006-05-16 09:02 51°14.917 2°50.092 -999 222 12.9 101610 91
2006-05-16 09:03 51°14.941 2°50.166 -999 186 12.9 101620 91
2006-05-16 09:04 51°14.932 2°50.253 -999 120 13 101620 92
2006-05-16 09:05 51°14.855 2°50.283 -999 64 12.9 101610 90
2006-05-16 09:06 51°14.779 2°50.202 -999 22 12.9 101600 91
2006-05-16 09:07 51°14.752 2°50.07 -999 336 13 101610 92
2006-05-16 09:08 51°14.759 2°49.955 -999 325 13 101610 91
2006-05-16 09:09 51°14.768 2°49.874 -999 315 13 101610 91
2006-05-16 09:10 51°14.773 2°49.811 -999 300 12.9 101610 91
2006-05-16 09:11 51°14.777 2°49.751 -999 317 13 101610 91
2006-05-16 09:12 51°14.824 2°49.621 -999 299 13 101610 91
2006-05-16 09:13 51°14.898 2°49.57 -999 260 13 101610 91
2006-05-16 09:14 51°14.949 2°49.561 -999 245 12.9 101620 91
2006-05-16 09:15 51°14.994 2°49.557 -999 254 12.9 101620 91
2006-05-16 09:16 51°15.039 2°49.554 -999 250 12.9 101620 91
2006-05-16 09:17 51°15.083 2°49.55 -999 247 12.9 101610 91
2006-05-16 09:18 51°15.127 2°49.543 -999 257 12.8 101610 90
2006-05-16 09:19 51°15.172 2°49.54 -999 239 12.9 101610 91
2006-05-16 09:20 51°15.194 2°49.601 -999 157 12.8 101620 91
2006-05-16 09:21 51°15.161 2°49.701 -999 115 12.9 101620 90
2006-05-16 09:22 51°15.087 2°49.764 -999 81 12.9 101610 91
2006-05-16 09:23 51°15.004 2°49.735 -999 46 12.9 101600 91
2006-05-16 09:24 51°14.95 2°49.656 -999 24 12.8 101600 91
2006-05-16 09:25 51°14.915 2°49.581 -999 15 12.9 101600 92
2006-05-16 09:26 51°14.888 2°49.524 -999 17 12.9 101610 92
2006-05-16 09:27 51°14.869 2°49.437 -999 330 12.9 101600 92
2006-05-16 09:28 51°14.915 2°49.373 -999 250 12.9 101590 91
2006-05-16 09:29 51°14.938 2°49.451 -999 152 12.9 101610 91
2006-05-16 09:30 51°14.885 2°49.529 -999 104 12.9 101610 91
2006-05-16 09:31 51°14.821 2°49.542 -999 102 12.9 101610 91
2006-05-16 09:32 51°14.761 2°49.528 -999 82 12.9 101600 92
2006-05-16 09:33 51°14.711 2°49.494 -999 70 12.8 101600 91
2006-05-16 09:34 51°14.67 2°49.451 -999 66 12.7 101590 92
2006-05-16 09:35 51°14.629 2°49.404 -999 60 12.7 101600 92
2006-05-16 09:36 51°14.588 2°49.353 -999 53 12.8 101600 93
2006-05-16 09:37 51°14.547 2°49.297 -999 51 12.7 101600 93
2006-05-16 09:38 51°14.507 2°49.24 -999 49 12.7 101600 93
2006-05-16 09:39 51°14.468 2°49.184 -999 48 12.7 101600 93
2006-05-16 09:40 51°14.43 2°49.128 -999 44 12.7 101600 93
2006-05-16 09:41 51°14.392 2°49.073 -999 44 12.6 101600 93
2006-05-16 09:42 51°14.356 2°49.019 -999 40 12.6 101600 93
2006-05-16 09:43 51°14.319 2°48.964 -999 37 12.6 101610 92
2006-05-16 09:44 51°14.284 2°48.909 -999 40 12.6 101610 93
2006-05-16 09:45 51°14.248 2°48.856 -999 42 12.7 101610 93
2006-05-16 09:46 51°14.212 2°48.805 -999 42 12.6 101610 93
2006-05-16 09:47 51°14.177 2°48.754 -999 41 12.6 101610 93
2006-05-16 09:48 51°14.14 2°48.699 -999 30 12.6 101600 93
2006-05-16 09:49 51°14.104 2°48.615 -999 14 12.7 101600 93
2006-05-16 09:50 51°14.07 2°48.516 -999 4 12.7 101600 93
2006-05-16 09:51 51°14.06 2°48.411 -999 338 12.7 101600 93
2006-05-16 09:52 51°14.069 2°48.312 -999 321 12.8 101590 93
2006-05-16 09:53 51°14.093 2°48.228 -999 295 12.8 101590 92
2006-05-16 09:54 51°14.132 2°48.185 -999 260 12.8 101600 92
2006-05-16 09:55 51°14.172 2°48.188 -999 232 12.8 101610 92
2006-05-16 09:56 51°14.186 2°48.205 -999 221 12.8 101610 92
2006-05-16 09:57 51°14.191 2°48.213 -999 226 12.8 101610 92
2006-05-16 09:58 51°14.197 2°48.218 -999 216 12.7 101600 92
2006-05-16 09:59 51°14.213 2°48.323 -999 170 12.8 101620 92
2006-05-16 10:00 51°14.253 2°48.564 -999 138 12.8 101610 92
2006-05-16 10:01 51°14.294 2°48.827 -999 125 12.8 101620 92
2006-05-16 10:02 51°14.325 2°49.109 -999 120 12.9 101620 91
2006-05-16 10:03 51°14.36 2°49.398 -999 85 12.9 101620 91
2006-05-16 10:04 51°14.393 2°49.703 -999 58 12.9 101620 91
2006-05-16 10:05 51°14.418 2°49.999 -999 63 12.9 101620 91
2006-05-16 10:06 51°14.445 2°50.305 -999 35 12.9 101620 91
2006-05-16 10:07 51°14.475 2°50.605 -999 37 12.9 101620 91
2006-05-16 10:08 51°14.503 2°50.906 -999 68 12.9 101620 91
2006-05-16 10:09 51°14.532 2°51.204 -999 52 12.9 101620 92
2006-05-16 10:10 51°14.554 2°51.506 -999 48 12.8 101620 91
2006-05-16 10:11 51°14.577 2°51.81 -999 78 12.9 101620 92
2006-05-16 10:12 51°14.582 2°52.119 -999 75 12.9 101620 92
2006-05-16 10:13 51°14.592 2°52.423 -999 79 12.8 101620 92
2006-05-16 10:14 51°14.591 2°52.74 -999 73 12.8 101620 92
2006-05-16 10:15 51°14.58 2°52.998 -999 102 12.8 101620 92
2006-05-16 10:16 51°14.571 2°53.213 -999 114 12.8 101620 93
2006-05-16 10:17 51°14.556 2°53.426 -999 112 12.8 101620 93
2006-05-16 10:18 51°14.539 2°53.639 -999 101 12.9 101610 93
2006-05-16 10:19 51°14.52 2°53.816 -999 123 12.9 101620 92
2006-05-16 10:20 51°14.499 2°53.935 -999 147 12.8 101620 92
2006-05-16 10:21 51°14.493 2°54.041 -999 145 12.8 101620 92
2006-05-16 10:22 51°14.496 2°54.256 -999 108 12.8 101620 92
2006-05-16 10:23 51°14.476 2°54.512 -999 85 12.8 101620 92
2006-05-16 10:24 51°14.445 2°54.772 -999 69 12.8 101620 92
2006-05-16 10:25 51°14.385 2°55.024 -999 84 12.8 101610 92
2006-05-16 10:26 51°14.287 2°55.233 -999 61 12.8 101610 91
2006-05-16 10:27 51°14.175 2°55.375 -999 63 12.9 101610 91
2006-05-16 10:28 51°14.061 2°55.476 -999 30 12.9 101610 90
2006-05-16 10:29 51°13.962 2°55.546 -999 83 13 101610 89
2006-05-16 10:30 51°13.871 2°55.608 -999 42 13.1 101610 88
2006-05-16 10:31 51°13.791 2°55.66 -999 43 13.2 101620 87
2006-05-16 10:32 51°13.729 2°55.727 -999 73 13.2 101620 86
2006-05-16 10:33 51°13.685 2°55.821 -999 85 13.2 101620 85
2006-05-16 10:34 51°13.647 2°55.915 -999 147 13.2 101630 84
2006-05-16 10:35 51°13.622 2°55.992 -999 155 13.2 101630 83
2006-05-16 10:36 51°13.608 2°56.058 -999 156 13.3 101630 83
2006-05-16 10:37 51°13.602 2°56.093 -999 182 13.3 101630 83
2006-05-16 10:38 51°13.601 2°56.098 -999 191 13.5 101630 83
2006-05-16 10:39 51°13.602 2°56.099 -999 161 13.6 101630 83
2006-05-16 10:40 51°13.603 2°56.099 -999 134 13.6 101630 80
2006-05-16 10:41 51°13.603 2°56.1 -999 142 13.6 101630 80
2006-05-16 10:42 51°13.604 2°56.099 -999 161 13.5 101640 81
2006-05-16 10:43 51°13.604 2°56.099 -999 165 13.5 101640 81
2006-05-16 10:44 51°13.604 2°56.099 -999 136 13.4 101640 81
2006-05-16 10:45 51°13.603 2°56.099 -999 142 13.4 101640 81
2006-05-16 10:46 51°13.603 2°56.099 -999 136 13.4 101640 81
2006-05-16 10:47 51°13.603 2°56.099 -999 145 13.4 101630 81
2006-05-16 10:48 51°13.603 2°56.099 -999 143 13.4 101630 81
2006-05-16 10:49 51°13.603 2°56.099 -999 154 13.4 101630 81
2006-05-16 10:50 51°13.605 2°56.099 -999 145 13.4 101630 82
2006-05-16 10:51 51°13.605 2°56.1 -999 117 13.4 101630 82
2006-05-16 10:52 51°13.604 2°56.099 -999 112 13.4 101640 81
2006-05-16 10:53 51°13.604 2°56.099 -999 153 13.4 101640 81
2006-05-16 10:54 51°13.605 2°56.099 -999 142 13.5 101640 81
2006-05-16 10:55 51°13.605 2°56.1 -999 151 13.5 101640 81
2006-05-16 10:56 51°13.604 2°56.099 -999 121 13.5 101640 80
2006-05-16 10:57 51°13.604 2°56.099 -999 163 13.5 101640 81
2006-05-16 10:58 51°13.604 2°56.099 -999 119 13.5 101640 81
2006-05-16 10:59 51°13.604 2°56.099 -999 122 13.6 101640 81
2006-05-16 11:00 51°13.605 2°56.1 -999 125 13.6 101650 81
2006-05-16 11:01 51°13.605 2°56.1 -999 115 13.5 101660 81
2006-05-16 11:02 51°13.605 2°56.1 -999 136 13.6 101660 81
2006-05-16 11:03 51°13.605 2°56.1 -999 92 13.6 101670 81
2006-05-16 11:04 51°13.604 2°56.1 -999 98 13.6 101660 81
2006-05-16 11:05 51°13.604 2°56.1 -999 159 13.6 101660 81
2006-05-16 11:06 51°13.604 2°56.099 -999 138 13.6 101650 80
2006-05-16 11:07 51°13.604 2°56.1 -999 130 13.6 101640 79
2006-05-16 11:08 51°13.603 2°56.1 -999 117 13.5 101630 79
2006-05-16 11:09 51°13.604 2°56.1 -999 123 13.5 101620 79
2006-05-16 11:10 51°13.604 2°56.099 -999 152 13.5 101620 79
2006-05-16 11:11 51°13.603 2°56.099 -999 138 13.5 101620 79
2006-05-16 11:12 51°13.603 2°56.099 -999 136 13.5 101620 79
2006-05-16 11:13 51°13.603 2°56.099 -999 123 13.5 101620 79
2006-05-16 11:14 51°13.602 2°56.098 -999 167 13.6 101620 79
2006-05-16 11:15 51°13.602 2°56.098 -999 167 13.6 101620 79
2006-05-16 11:16 51°13.601 2°56.098 -999 141 13.6 101620 79
2006-05-16 11:17 51°13.602 2°56.098 -999 90 13.7 101610 79
2006-05-16 11:18 51°13.602 2°56.098 -999 153 13.7 101620 79
2006-05-16 11:19 51°13.603 2°56.099 -999 140 13.7 101620 78
2006-05-16 11:20 51°13.603 2°56.099 -999 149 13.7 101620 78
2006-05-16 11:21 51°13.601 2°56.098 -999 143 13.8 101620 79
2006-05-16 11:22 51°13.602 2°56.083 -999 174 13.7 101620 78
2006-05-16 11:23 51°13.614 2°56.001 -999 186 13.8 101620 79
2006-05-16 11:24 51°13.643 2°55.903 -999 187 14.1 101620 77
2006-05-16 11:25 51°13.693 2°55.806 -999 172 14.2 101620 75
2006-05-16 11:26 51°13.728 2°55.721 -999 196 14.1 101630 76
2006-05-16 11:27 51°13.733 2°55.727 -999 226 14.1 101630 75
2006-05-16 11:28 51°13.747 2°55.715 -999 302 14 101640 75
2006-05-16 11:29 51°13.813 2°55.656 -999 16 14 101630 76
2006-05-16 11:30 51°13.898 2°55.581 -999 354 14 101630 76
2006-05-16 11:31 51°13.979 2°55.528 -999 328 14 101640 76
2006-05-16 11:32 51°14.05 2°55.482 -999 313 14 101630 76
2006-05-16 11:33 51°14.119 2°55.434 -999 339 13.9 101640 76
2006-05-16 11:34 51°14.211 2°55.344 -999 334 13.9 101630 77
2006-05-16 11:35 51°14.307 2°55.194 -999 338 13.9 101630 78
2006-05-16 11:36 51°14.397 2°54.999 -999 333 13.7 101630 79
2006-05-16 11:37 51°14.523 2°54.792 -999 335 13.6 101620 80
2006-05-16 11:38 51°14.64 2°54.511 -999 342 13.5 101610 81
2006-05-16 11:39 51°14.761 2°54.23 -999 349 13.5 101610 82
2006-05-16 11:40 51°14.842 2°53.911 -999 352 13.5 101610 83
2006-05-16 11:41 51°14.858 2°53.572 -999 359 13.5 101610 82
2006-05-16 11:42 51°14.831 2°53.219 -999 3 13.4 101600 82
2006-05-16 11:43 51°14.802 2°52.879 -999 4 13.4 101600 83
2006-05-16 11:44 51°14.752 2°52.535 -999 5 13.4 101600 82
2006-05-16 11:45 51°14.713 2°52.177 -999 1 13.4 101600 82
2006-05-16 11:46 51°14.664 2°51.825 -999 6 13.4 101600 81
2006-05-16 11:47 51°14.615 2°51.474 -999 10 13.3 101590 81
2006-05-16 11:48 51°14.567 2°51.125 -999 8 13.3 101590 81
2006-05-16 11:49 51°14.51 2°50.777 -999 10 13.3 101580 81
2006-05-16 11:50 51°14.459 2°50.43 -999 15 13.3 101580 82
2006-05-16 11:51 51°14.398 2°50.091 -999 13 13.3 101580 81
2006-05-16 11:52 51°14.335 2°49.756 -999 11 13.3 101590 82
2006-05-16 11:53 51°14.271 2°49.428 -999 13 13.2 101590 81
2006-05-16 11:54 51°14.207 2°49.088 -999 12 13.3 101590 82
2006-05-16 11:55 51°14.143 2°48.752 -999 7 13.2 101580 82
2006-05-16 11:56 51°14.076 2°48.47 -999 8 13.2 101590 81
2006-05-16 11:57 51°14.043 2°48.298 -999 13 13.2 101590 81
2006-05-16 11:58 51°14.017 2°48.176 -999 13 13.3 101590 80
2006-05-16 11:59 51°13.997 2°48.09 -999 29 13.3 101590 79
2006-05-16 12:00 51°13.991 2°48.082 -999 35 13.2 101600 77
2006-05-16 12:01 51°13.986 2°48.08 -999 53 13.2 101600 78
2006-05-16 12:02 51°13.98 2°48.082 -999 62 13.2 101610 79
2006-05-16 12:03 51°13.974 2°48.085 -999 71 13.1 101600 79
2006-05-16 12:04 51°13.969 2°48.09 -999 78 13.1 101610 80
2006-05-16 12:05 51°13.962 2°48.097 -999 90 13.1 101610 79
2006-05-16 12:06 51°13.957 2°48.106 -999 97 13.1 101610 79
2006-05-16 12:07 51°13.951 2°48.115 -999 85 13.1 101610 79
2006-05-16 12:08 51°13.945 2°48.125 -999 85 13.2 101610 79
2006-05-16 12:09 51°13.94 2°48.135 -999 92 13.2 101610 80
2006-05-16 12:10 51°13.908 2°48.13 -999 46 13.3 101610 80
2006-05-16 12:11 51°13.867 2°48.074 -999 25 13.2 101610 79
2006-05-16 12:12 51°13.852 2°47.99 -999 356 13.2 101610 80
2006-05-16 12:13 51°13.916 2°47.897 -999 318 13.2 101600 80
2006-05-16 12:14 51°13.99 2°47.891 -999 291 13.3 101610 80
2006-05-16 12:15 51°14.059 2°47.921 -999 273 13.3 101610 80
2006-05-16 12:16 51°14.125 2°47.964 -999 273 13.4 101620 80
2006-05-16 12:17 51°14.181 2°48.019 -999 260 13.5 101610 80
2006-05-16 12:18 51°14.224 2°48.079 -999 252 13.5 101610 80
2006-05-16 12:19 51°14.262 2°48.136 -999 256 13.6 101620 80
2006-05-16 12:20 51°14.295 2°48.19 -999 251 13.6 101610 80
2006-05-16 12:21 51°14.325 2°48.248 -999 252 13.6 101620 80
2006-05-16 12:22 51°14.352 2°48.312 -999 243 13.6 101610 81
2006-05-16 12:23 51°14.377 2°48.377 -999 242 13.6 101610 80
2006-05-16 12:24 51°14.402 2°48.443 -999 244 13.6 101610 80
2006-05-16 12:25 51°14.427 2°48.509 -999 243 13.6 101610 80
2006-05-16 12:26 51°14.453 2°48.576 -999 248 13.6 101610 81
2006-05-16 12:27 51°14.478 2°48.644 -999 255 13.6 101610 80
2006-05-16 12:28 51°14.504 2°48.712 -999 245 13.7 101610 80
2006-05-16 12:29 51°14.531 2°48.781 -999 256 13.7 101610 80
2006-05-16 12:30 51°14.557 2°48.85 -999 260 13.7 101600 80
2006-05-16 12:31 51°14.586 2°48.919 -999 249 13.7 101610 80
2006-05-16 12:32 51°14.612 2°48.989 -999 250 13.6 101600 80
2006-05-16 12:33 51°14.634 2°49.063 -999 248 13.7 101600 80
2006-05-16 12:34 51°14.653 2°49.14 -999 226 13.7 101600 80
2006-05-16 12:35 51°14.672 2°49.218 -999 216 13.6 101600 78
2006-05-16 12:36 51°14.691 2°49.297 -999 229 13.5 101600 79
2006-05-16 12:37 51°14.71 2°49.376 -999 232 13.5 101600 79
2006-05-16 12:38 51°14.728 2°49.456 -999 231 13.5 101600 79
2006-05-16 12:39 51°14.747 2°49.536 -999 225 13.6 101600 79
2006-05-16 12:40 51°14.767 2°49.615 -999 224 13.6 101600 78
2006-05-16 12:41 51°14.788 2°49.694 -999 230 13.6 101600 79
2006-05-16 12:42 51°14.809 2°49.774 -999 231 13.6 101600 79
2006-05-16 12:43 51°14.83 2°49.853 -999 213 13.6 101600 78
2006-05-16 12:44 51°14.852 2°49.934 -999 224 13.6 101600 78
2006-05-16 12:45 51°14.875 2°50.014 -999 214 13.6 101600 78
2006-05-16 12:46 51°14.897 2°50.095 -999 224 13.6 101600 78
2006-05-16 12:47 51°14.921 2°50.175 -999 227 13.6 101600 78
2006-05-16 12:48 51°14.945 2°50.256 -999 233 13.7 101600 78
2006-05-16 12:49 51°14.969 2°50.337 -999 214 13.7 101600 78
2006-05-16 12:50 51°14.992 2°50.418 -999 208 13.6 101600 77
2006-05-16 12:51 51°15.012 2°50.501 -999 203 13.4 101590 77
2006-05-16 12:52 51°15.027 2°50.577 -999 194 13.3 101600 78
2006-05-16 12:53 51°15.041 2°50.646 -999 210 13.4 101590 78
2006-05-16 12:54 51°15.054 2°50.706 -999 198 13.3 101590 78
2006-05-16 12:55 51°15.066 2°50.771 -999 199 13.5 101590 80
2006-05-16 12:56 51°15.059 2°50.879 -999 137 13.6 101590 80
2006-05-16 12:57 51°15.038 2°50.985 -999 126 13.7 101590 80
2006-05-16 12:58 51°15.007 2°51.072 -999 118 13.7 101580 79
2006-05-16 12:59 51°14.965 2°51.135 -999 95 13.6 101580 78
2006-05-16 13:00 51°14.92 2°51.137 -999 56 13.5 101580 77
2006-05-16 13:01 51°14.909 2°51.052 -999 17 13.3 101570 78
2006-05-16 13:02 51°14.994 2°50.899 -999 354 13.3 101570 80
2006-05-16 13:03 51°15.114 2°50.894 -999 320 13.4 101570 80
2006-05-16 13:04 51°15.183 2°50.963 -999 291 13.4 101570 79
2006-05-16 13:05 51°15.227 2°51.039 -999 271 13.4 101570 79
2006-05-16 13:06 51°15.259 2°51.111 -999 252 13.5 101580 79
2006-05-16 13:07 51°15.286 2°51.176 -999 247 13.5 101570 79
2006-05-16 13:08 51°15.313 2°51.235 -999 249 13.5 101580 78
2006-05-16 13:09 51°15.339 2°51.29 -999 272 13.5 101570 78
2006-05-16 13:10 51°15.375 2°51.348 -999 309 13.5 101570 78
2006-05-16 13:11 51°15.442 2°51.394 -999 331 13.5 101570 79
2006-05-16 13:12 51°15.514 2°51.392 -999 349 13.5 101570 79
2006-05-16 13:13 51°15.564 2°51.345 -999 16 13.5 101570 79
2006-05-16 13:14 51°15.572 2°51.283 -999 47 13.5 101580 78
2006-05-16 13:15 51°15.557 2°51.218 -999 30 13.3 101580 79
2006-05-16 13:16 51°15.54 2°51.147 -999 39 13.2 101580 81
2006-05-16 13:17 51°15.51 2°51.085 -999 45 13.1 101580 82
2006-05-16 13:18 51°15.474 2°51.018 -999 43 13 101580 82
2006-05-16 13:19 51°15.441 2°50.944 -999 42 12.9 101570 82
2006-05-16 13:20 51°15.407 2°50.87 -999 38 12.9 101570 82
2006-05-16 13:21 51°15.374 2°50.8 -999 38 12.8 101560 82
2006-05-16 13:22 51°15.342 2°50.732 -999 42 12.8 101560 83
2006-05-16 13:23 51°15.308 2°50.667 -999 53 12.8 101560 82
2006-05-16 13:24 51°15.273 2°50.605 -999 53 12.8 101560 82
2006-05-16 13:25 51°15.231 2°50.551 -999 53 12.8 101560 82
2006-05-16 13:26 51°15.185 2°50.506 -999 53 12.8 101560 83
2006-05-16 13:27 51°15.137 2°50.464 -999 46 12.8 101560 83
2006-05-16 13:28 51°15.093 2°50.419 -999 52 12.8 101560 83
2006-05-16 13:29 51°15.053 2°50.379 -999 48 12.8 101560 83
2006-05-16 13:30 51°15.015 2°50.342 -999 52 12.8 101570 83
2006-05-16 13:31 51°14.976 2°50.307 -999 56 12.8 101570 83
2006-05-16 13:32 51°14.938 2°50.274 -999 51 12.8 101570 83
2006-05-16 13:33 51°14.9 2°50.238 -999 50 12.8 101570 83
2006-05-16 13:34 51°14.86 2°50.211 -999 64 12.8 101570 83
2006-05-16 13:35 51°14.807 2°50.293 -999 342 12.8 101570 82
2006-05-16 13:36 51°14.855 2°50.572 -999 340 12.8 101570 82
2006-05-16 13:37 51°14.929 2°50.942 -999 340 13 101570 83
2006-05-16 13:38 51°14.956 2°51.329 -999 347 13 101560 81
2006-05-16 13:39 51°14.949 2°51.713 -999 350 13.2 101560 81
2006-05-16 13:40 51°14.944 2°52.095 -999 341 13.3 101560 80
2006-05-16 13:41 51°14.917 2°52.461 -999 348 13.3 101560 80
2006-05-16 13:42 51°14.854 2°52.823 -999 349 13.4 101560 79
2006-05-16 13:43 51°14.796 2°53.181 -999 346 13.4 101560 78
2006-05-16 13:44 51°14.74 2°53.542 -999 351 13.5 101550 78
2006-05-16 13:45 51°14.67 2°53.891 -999 353 13.5 101550 78
2006-05-16 13:46 51°14.593 2°54.241 -999 352 13.5 101550 77
2006-05-16 13:47 51°14.505 2°54.585 -999 359 13.6 101550 77
2006-05-16 13:48 51°14.411 2°54.926 -999 359 13.6 101550 77
2006-05-16 13:49 51°14.301 2°55.177 -999 38 13.6 101560 78
2006-05-16 13:50 51°14.216 2°55.322 -999 50 13.6 101560 78
2006-05-16 13:51 51°14.134 2°55.407 -999 76 13.5 101550 78
2006-05-16 13:52 51°14.053 2°55.465 -999 91 13.5 101550 78
2006-05-16 13:53 51°13.971 2°55.524 -999 90 13.6 101550 78
2006-05-16 13:54 51°13.891 2°55.578 -999 78 13.6 101550 77
2006-05-16 13:55 51°13.807 2°55.638 -999 83 13.7 101560 77
2006-05-16 13:56 51°13.744 2°55.717 -999 187 13.7 101560 77
2006-05-16 13:57 51°13.683 2°55.831 -999 72 13.8 101560 77
2006-05-16 13:58 51°13.642 2°55.948 -999 175 14 101560 76
2006-05-16 13:59 51°13.618 2°56.033 -999 222 14.1 101560 75
2006-05-16 14:00 51°13.608 2°56.081 -999 235 14.1 101560 75
2006-05-16 14:01 51°13.604 2°56.094 -999 201 14.2 101550 75
2006-05-16 14:02 51°13.602 2°56.098 -999 197 14.1 101550 73
2006-05-16 14:03 51°13.601 2°56.098 -999 234 14.1 101550 73